Regional Weather Roundup
Issued by NWS

Home | Current Version | Previous Version | Text Only | Print | Product List | Glossary Off
Versions: 1 2 3 4 5 6 7 8 9 10 11 12 13 14 15 16 17 18 19 20 21 22 23 24 25 26 27 28 29 30 31 32 33 34 35 36 37 38 39 40 41 42 43 44 45 46 47 48 49 50

000
ASUS43 KDTX 261810
RWRMI
MICHIGAN HOURLY REGIONAL WEATHER ROUNDUP
NATIONAL WEATHER SERVICE DETROIT/PONTIAC MI
200 PM EDT WED JUL 26 2017

NOTE: "FAIR" INDICATES FEW OR NO CLOUDS BELOW 12,000 FEET WITH NO
SIGNIFICANT WEATHER AND/OR OBSTRUCTION TO VISIBILITY.

MIZ047>049-052>055-059>063-066>070-074>076-081>083-261900-
SOUTHEAST LOWER MICHIGAN

CITY           SKY/WX    TMP DP  RH WIND       PRES   REMARKS
ADRIAN         SUNNY     77  61  57 SW9G16    30.11F
6HR MIN TEMP:  60; 6HR MAX TEMP:  78;

ALMA           CLOUDY    77  63  61 W8        30.09R
ANN ARBOR      SUNNY     79  64  60 VRB7      30.09F
BAD AXE        CLOUDY    74  62  65 SW14      30.06F
6HR MIN TEMP:  64; 6HR MAX TEMP:  74;

CARO           CLOUDY    75  62  63 SW13      30.06F
DETROIT CITY   MOSUNNY   78  63  59 SW13      30.08F
6HR MIN TEMP:  67; 6HR MAX TEMP:  79;

DETROIT        PTSUNNY   79  63  57 S8        30.09F
6HR MIN TEMP:  66; 6HR MAX TEMP:  79;

FLINT          MOSUNNY   76  62  62 S10       30.07F
6HR MIN TEMP:  63; 6HR MAX TEMP:  78;

GROSSE ILE     PTSUNNY   76  63  63 S12       30.08F
6HR MIN TEMP:  67; 6HR MAX TEMP:  77;

HILLSDALE      CLOUDY    77  61  57 S8        30.11S
HOWELL         PTSUNNY   77  61  58 S9        30.09S
6HR MIN TEMP:  63; 6HR MAX TEMP:  78;


CITY           SKY/WX    TMP DP  RH WIND       PRES   REMARKS
JACKSON        CLOUDY    79  60  52 S9        30.09F
6HR MIN TEMP:  64; 6HR MAX TEMP:  79;

LAMBERTVILLE   SUNNY     78  62  57 S7        30.09F
6HR MIN TEMP:  63; 6HR MAX TEMP:  78;

LANSING        CLOUDY    78  62  57 S9        30.08F
6HR MIN TEMP:  64; 6HR MAX TEMP:  79;

LAPEER         FAIR      78  61  56 SW10      30.08S
6HR MIN TEMP:  63; 6HR MAX TEMP:  78;

MASON          CLOUDY    76  63  63 S3        30.09F
MONROE         CLOUDY    78  64  60 S7        30.08F
6HR MIN TEMP:  64; 6HR MAX TEMP:  78;

MT. CLEMENS    CLOUDY    78  64  61 S14       30.06F
6HR MIN TEMP:  68; 6HR MAX TEMP:  78;

PONTIAC        CLOUDY    77  60  55 S13       30.08F
6HR MIN TEMP:  64; 6HR MAX TEMP:  77;

PORT HOPE        N/A     75  63  66 SW9       30.04S
6HR MIN TEMP:  65; 6HR MAX TEMP:  75;

PORT HURON     PTSUNNY   77  63  61 S12G20    30.08F
TRI CITIES     CLOUDY    77  65  66 SW14      30.07F
6HR MIN TEMP:  64; 6HR MAX TEMP:  77;

MIDLAND        FAIR      77  63  61 SW13      30.06R
6HR MIN TEMP:  64; 6HR MAX TEMP:  77;

TROY           MOSUNNY   79  59  51 SW12G17   30.10F
SAGINAW HB     CLOUDY    75  63  64 SW8       30.06S
$$
MIZ043>046-050>051-056>058-064>065-071>073-077>080-261900-
SOUTHWEST LOWER MICHIGAN

CITY           SKY/WX    TMP DP  RH WIND       PRES   REMARKS
BATTLE CREEK   MOSUNNY   79  64  60 S12       30.09F
6HR MIN TEMP:  63; 6HR MAX TEMP:  79;

BENTON HARBOR  CLOUDY    81  65  58 S8        30.05F
6HR MIN TEMP:  66; 6HR MAX TEMP:  82;

BIG RAPIDS     RAIN      67  65  91 SW7       30.09F
6HR MIN TEMP:  65; 6HR MAX TEMP:  73; 6HR PCP:  0.35;

COLDWATER      CLOUDY    78  62  59 S5        30.10S
6HR MIN TEMP:  63; 6HR MAX TEMP:  78;

FREMONT        RAIN      72  66  82 CALM      30.08F
HOLLAND        CLOUDY    79  64  60 SW7       30.08R
6HR MIN TEMP:  65; 6HR MAX TEMP:  79;

GRAND RAPIDS   CLOUDY    78  64  61 SW9       30.09R
6HR MIN TEMP:  64; 6HR MAX TEMP:  79;

IONIA          PTSUNNY   77  62  59 SW8       30.09R
6HR MIN TEMP:  64; 6HR MAX TEMP:  78;

KALAMAZOO      PTSUNNY   80  61  52 SW12      30.08F
6HR MIN TEMP:  65; 6HR MAX TEMP:  81;

LUDINGTON      CLOUDY    69  68  96 S9        30.04F
6HR MIN TEMP:  66; 6HR MAX TEMP:  73; 6HR PCP:  0.51;

MARSHALL       PTSUNNY   79  64  60 S6        30.09F
6HR MIN TEMP:  64; 6HR MAX TEMP:  79;

MOUNT PLEASANT CLOUDY    76  60  59 W8        30.08R
6HR MIN TEMP:  65; 6HR MAX TEMP:  78;

MUSKEGON       CLOUDY    74  66  76 S8        30.08R
6HR MIN TEMP:  69; 6HR MAX TEMP:  75;

SOUTH HAVEN    PTSUNNY   81  67  61 S7        30.06S
$$
MIZ016>042-261900-
NORTHERN LOWER MICHIGAN

CITY           SKY/WX    TMP DP  RH WIND       PRES   REMARKS
ALPENA         CLOUDY    72  65  78 SW9       30.01S
6HR MIN TEMP:  63; 6HR MAX TEMP:  72; 6HR PCP:  0.09;

BEAVER ISLAND  LGT RAIN  67  66  97 SW9       29.93F
6HR MIN TEMP:  64; 6HR MAX TEMP:  69;

BELLAIRE       HVY RAIN  67  65  93 CALM      30.01F
6HR MIN TEMP:  62; 6HR MAX TEMP:  72;

CADILLAC       HVY RAIN  69  66  89 E6        30.05F
CHARLEVOIX     RAIN      68  68 100 SW9       30.00F
FRANKFORT      CLOUDY    70  70 100 SE6       29.99F
GAYLORD        HVY RAIN  68  64  87 W16G28    30.06R VSB 1
6HR MIN TEMP:  61; 6HR MAX TEMP:  71; 6HR PCP:  0.20;

GRAYLING       HVY RAIN  68  64  88 W10G23    30.09R
6HR MIN TEMP:  60; 6HR MAX TEMP:  71;

HARBOR SPRINGS RAIN      67  65  96 SW9       29.99F
HOUGHTON LAKE  LGT RAIN  72  64  76 W16G26    30.10R
6HR MIN TEMP:  62; 6HR MAX TEMP:  73; 6HR PCP: TRACE;

MANISTEE       CLOUDY    68  67  96 VRB6      30.03R
OSCODA         CLOUDY    74  62  65 SW15G21   30.02F
6HR MIN TEMP:  64; 6HR MAX TEMP:  74; 6HR PCP:  0.02;

PELLSTON       LGT RAIN  68  66  93 SW13G24   29.98S
6HR MIN TEMP:  63; 6HR MAX TEMP:  70; 6HR PCP:  0.36;

ROGERS CITY    HVY RAIN  68  65  90 SW9       30.00R
TRAVERSE CITY  LGT RAIN  68  65  90 S6        29.99F
6HR MIN TEMP:  66; 6HR MAX TEMP:  74; 6HR PCP:  0.23;

$$
MIZ007>008-015-261900-
EASTERN UPPER MICHIGAN

CITY           SKY/WX    TMP DP  RH WIND       PRES   REMARKS
KINROSS        CLOUDY    67  65  93 SW8       29.94F
6HR MIN TEMP:  63; 6HR MAX TEMP:  67;

MACKINAC ISLAN LGT RAIN  67  67 100 SW20G30   29.96S
6HR MIN TEMP:  63; 6HR MAX TEMP:  68; 6HR PCP:  0.11;

NEWBERRY       CLOUDY    67  66  97 SW7       29.93F
6HR MIN TEMP:  63; 6HR MAX TEMP:  67; 6HR PCP:  0.03;

S. S. MARIE    CLOUDY    69  66  90 SW12      29.91F
6HR MIN TEMP:  65; 6HR MAX TEMP:  70; 6HR PCP:  0.07;

MUNISING         N/A     71  67  87 NE8       29.90F
6HR MIN TEMP:  68; 6HR MAX TEMP:  72; 6HR PCP:  0.04;

$$
MIZ004>006-011>014-085-261900-
CENTRAL UPPER MICHIGAN

CITY           SKY/WX    TMP DP  RH WIND       PRES   REMARKS
MANISTIQUE     CLOUDY    68  65  90 S8        29.91F FOG
6HR MIN TEMP:  64; 6HR MAX TEMP:  68; 6HR PCP:  0.48;

ESCANABA       CLOUDY    70  69  97 SW3       29.93S
6HR MIN TEMP:  66; 6HR MAX TEMP:  70; 6HR PCP:  0.10;

MENOMINEE      LGT RAIN  71  69  93 SW9       29.96F
6HR MIN TEMP:  66; 6HR MAX TEMP:  71; 6HR PCP:  0.17;

SAWYER-GWINN   PTSUNNY   73  66  78 NW8       29.93F
$$
MIZ001>003-009>011-084-261900-
WESTERN UPPER MICHIGAN

CITY           SKY/WX    TMP DP  RH WIND       PRES   REMARKS
IRON MOUNTAIN  CLOUDY    75  68  78 W6        29.94F
6HR MIN TEMP:  70; 6HR MAX TEMP:  75; 6HR PCP:  0.11;

HOUGHTON       SUNNY     76  58  53 W17G23    29.93S
6HR MIN TEMP:  68; 6HR MAX TEMP:  76;

COPPER HARBOR    N/A     70  53  54 N16G26    29.90S
6HR MIN TEMP:  68; 6HR MAX TEMP:  74;

IRONWOOD       SUNNY     77  62  59 W10       29.98F
6HR MIN TEMP:  70; 6HR MAX TEMP:  77;

$$

ABBREVIATIONS USED IN REMARKS
   TC - TEMPERATURE IN CELSIUS
  WCI - WIND CHILL INDEX
   HX - HEAT INDEX
  VSB - VISIBILITY





USA.gov is the U.S. government's official web portal to all federal, state and local government web resources and services.